Weather History for KNQA - March, 2013

Change the Weather History Date:

Friday, March 8, 2013

  Actual Average Record
Temperature  
Mean Temperature 48 °F -  
Max Temperature 62 °F 56 °F 78 °F (2009)
Min Temperature 33 °F 38 °F 28 °F (2008)
Degree Days  
Heating Degree Days 18    
Moisture  
Dew Point 29 °F    
Average Humidity 57    
Maximum Humidity 81    
Minimum Humidity 25    
Precipitation  
Precipitation 0.00 in - - ()
Sea Level Pressure  
Sea Level Pressure 30.30 in    
Wind  
Wind Speed 5 mph (ENE)    
Max Wind Speed 7 mph    
Max Gust Speed -    
Visibility 10 miles    
Events      
Averages and records for this station are not official NWS values.
T = Trace of Precipitation, MM = Missing Value Source: NWS Daily Summary

Daily Weather History Graph

Daily Weather History Graph

Search for Another Location

Airport or City:

Trip Planner

Search our weather history database for the weather conditions in past years. The results will help you decide how hot, cold, wet, or windy it might be!

Date:

Astronomy

Mar. 08, 2013 Rise Set
Actual Time 6:19 AM CST 6:01 PM CST
Civil Twilight 5:54 AM CST 6:26 PM CST
Nautical Twilight 5:24 AM CST 6:56 PM CST
Astronomical Twilight 4:55 AM CST 7:25 PM CST
Moon 3:57 AM CST (3/8) 3:01 PM CST (3/8)
Length of Visible Light 12h 32m
Length of Day
11h 41m
Waning Crescent, 11% of the Moon is Illuminated
Mar 8
Waning Crescent
Mar 11
New
Mar 19
First Quarter
Mar 27
Full
Apr 2
Last Quarter

Hourly Weather History & Observations

Time (CST) Temp. Windchill Dew Point Humidity Pressure Visibility Wind Dir Wind Speed Gust Speed Precip Events Conditions
12:55 AM 39.2 °F 34.2 °F 30.2 °F 70% 30.31 in 10.0 mi ENE 6.9 mph - N/A   Clear
1:55 AM 37.4 °F 32.8 °F 30.2 °F 75% 30.32 in 10.0 mi ENE 5.8 mph - N/A   Clear
2:15 AM 37.4 °F 33.8 °F 30.2 °F 75% 30.33 in 10.0 mi East 4.6 mph - N/A   Clear
2:35 AM 37.4 °F 33.8 °F 28.4 °F 70% 30.33 in 10.0 mi ENE 4.6 mph - N/A   Clear
2:55 AM 35.6 °F 32.8 °F 28.4 °F 75% 30.33 in 10.0 mi ENE 3.5 mph - N/A   Clear
3:15 AM 35.6 °F 30.7 °F 28.4 °F 75% 30.33 in 10.0 mi ENE 5.8 mph - N/A   Clear
3:35 AM 35.6 °F 30.7 °F 28.4 °F 75% 30.33 in 10.0 mi ENE 5.8 mph - N/A   Clear
3:55 AM 35.6 °F 31.7 °F 28.4 °F 75% 30.33 in 10.0 mi ENE 4.6 mph - N/A   Clear
4:15 AM 35.6 °F 31.7 °F 28.4 °F 75% 30.33 in 10.0 mi ENE 4.6 mph - N/A   Clear
4:35 AM 35.6 °F 31.7 °F 28.4 °F 75% 30.33 in 10.0 mi ENE 4.6 mph - N/A   Clear
4:55 AM 33.8 °F 29.6 °F 28.4 °F 81% 30.33 in 10.0 mi East 4.6 mph - N/A   Clear
5:55 AM 33.8 °F 29.6 °F 28.4 °F 81% 30.35 in 10.0 mi ENE 4.6 mph - N/A   Clear
6:55 AM 33.8 °F 29.6 °F 28.4 °F 81% 30.38 in 10.0 mi East 4.6 mph - N/A   Clear
7:55 AM 37.4 °F 33.8 °F 30.2 °F 75% 30.40 in 10.0 mi Variable 4.6 mph - N/A   Clear
8:55 AM 41.0 °F 36.4 °F 30.2 °F 65% 30.40 in 10.0 mi East 6.9 mph - N/A   Clear
9:55 AM 46.4 °F 42.9 °F 32.0 °F 57% 30.37 in 10.0 mi ENE 6.9 mph - N/A   Clear
10:55 AM 50.0 °F - 33.8 °F 54% 30.36 in 10.0 mi Calm Calm - N/A   Clear
11:55 AM 53.6 °F - 32.0 °F 44% 30.35 in 10.0 mi Variable 4.6 mph - N/A   Scattered Clouds
12:55 PM 57.2 °F - 30.2 °F 36% 30.31 in 10.0 mi Variable 5.8 mph - N/A   Scattered Clouds
1:55 PM 59.0 °F - 28.4 °F 31% 30.27 in 10.0 mi East 5.8 mph - N/A   Scattered Clouds
2:55 PM 60.8 °F - 28.4 °F 29% 30.27 in 10.0 mi East 3.5 mph - N/A   Scattered Clouds
3:55 PM 62.6 °F - 26.6 °F 26% 30.25 in 10.0 mi Calm Calm - N/A   Scattered Clouds
4:55 PM 60.8 °F - 24.8 °F 25% 30.24 in 10.0 mi Calm Calm - N/A   Mostly Cloudy
5:55 PM 57.2 °F - 24.8 °F 29% 30.23 in 10.0 mi NE 3.5 mph - N/A   Overcast
6:55 PM 55.4 °F - 28.4 °F 36% 30.21 in 10.0 mi NE 3.5 mph - N/A   Overcast
7:55 PM 55.4 °F - 28.4 °F 36% 30.22 in 10.0 mi NE 3.5 mph - N/A   Overcast
8:55 PM 53.6 °F - 28.4 °F 38% 30.23 in 10.0 mi Calm Calm - N/A   Overcast
9:55 PM 51.8 °F - 28.4 °F 41% 30.22 in 10.0 mi Calm Calm - N/A   Overcast
10:55 PM 48.2 °F - 30.2 °F 50% 30.22 in 10.0 mi East 3.5 mph - N/A   Overcast
11:55 PM 48.2 °F - 28.4 °F 46% 30.18 in 10.0 mi East 3.5 mph - N/A   Overcast